Theta_e
307 307 309 310 309 308 307 306 308 311 312 315 316 315 314 313 317 318 320 320 320 320 319 319 318 317 316 317 316 314 315 314 307 310 311 308 311 310 311 310 313 313 312 311 303 309 314 305 310 314 312 308 310 312
309 309 308 307 307 306 306 310 311 313 315 316 317 317 315 313 315 317 320 321 320 320 318 319 319 318 318 317 318 314 316 313 313 309 303 303 308 307 308 315 308 313 312 312 310 313 307 307 310 310 310 309 310 311
308 307 307 307 306 308 310 312 314 315 315 317 317 317 314 313 314 318 318 317 319 318 317 319 319 319 318 318 318 316 314 315 312 311 303 304 308 305 311 310 310 309 306 310 309 309 307 308 309 309 310 311 311 312
307 307 307 307 308 309 310 313 315 315 318 318 317 316 314 315 318 318 317 318 319 319 313 315 318 320 319 318 318 318 318 316 313 310 306 304 308 304 306 307 309 309 307 308 309 309 309 310 311 311 311 310 311 311
308 308 308 308 309 310 311 312 314 315 317 318 318 318 319 319 317 317 314 318 319 315 311 315 318 318 320 320 319 318 317 315 312 311 305 307 303 305 303 305 307 307 309 311 312 308 309 309 311 312 312 311 310 310
308 308 308 309 310 310 311 312 313 315 317 317 316 317 317 318 318 316 315 313 313 319 318 309 314 316 317 317 318 316 316 316 316 314 304 306 307 308 309 310 309 309 309 309 309 310 311 311 311 311 310 309 307 306
308 308 308 309 309 308 310 311 313 312 316 316 316 316 316 315 314 313 313 313 312 312 313 307 308 315 317 317 318 317 317 317 316 309 305 307 307 308 305 310 307 310 310 310 310 310 310 309 308 307 308 305 302 301
308 309 308 309 309 309 310 310 311 313 314 314 314 314 313 312 311 313 313 312 311 310 310 304 303 311 314 313 311 314 315 313 309 307 306 305 306 306 309 307 307 308 308 308 308 308 308 307 305 302 300 298 296 297
309 309 308 309 310 310 309 310 311 312 312 310 310 310 310 310 311 313 313 311 310 310 308 303 306 309 309 307 306 308 310 305 307 304 306 307 304 308 305 303 305 306 306 306 306 305 303 301 296 296 297 300 299 297
309 310 309 309 308 309 309 310 311 311 312 311 309 309 310 313 312 311 310 311 311 311 310 300 303 305 307 307 304 304 304 303 306 304 306 305 306 302 301 302 304 306 305 305 303 298 297 297 299 300 298 297 296 295
309 310 311 310 310 309 308 309 310 310 311 308 309 311 312 311 310 310 307 305 305 303 304 303 304 304 305 306 303 301 302 300 305 302 306 305 306 301 300 301 302 304 304 302 302 299 299 298 297 296 295 294 292 291
310 310 310 310 310 309 310 310 310 309 309 311 311 310 310 310 309 305 303 303 303 305 304 305 305 305 303 305 302 302 300 302 305 301 305 305 302 299 299 299 299 300 300 299 297 296 294 293 292 291 291 290 290 290
309 310 310 310 310 310 311 311 310 310 311 312 310 310 310 307 307 303 306 306 305 302 304 304 302 304 303 303 302 303 305 305 301 305 306 304 297 299 300 300 297 296 296 295 294 294 294 292 291 290 290 290 290 290
305 308 309 309 309 309 310 309 310 310 311 310 309 306 302 306 304 303 303 303 301 303 304 305 302 303 303 304 301 307 302 303 307 306 305 300 298 298 297 296 295 294 294 294 292 292 291 290 290 290 290 290 290 291
301 303 305 307 308 310 310 309 310 310 310 305 303 302 300 297 298 298 299 300 301 302 304 304 302 303 301 302 301 302 304 303 302 301 301 299 298 298 297 295 294 293 293 292 291 291 291 291 291 291 291 291 291 291
301 302 302 303 304 305 307 309 309 308 302 299 297 298 297 298 298 299 299 299 300 302 303 303 300 302 300 300 301 302 303 300 298 299 298 299 298 297 295 294 293 292 292 291 291 291 291 291 291 291 290 290 289 288
300 299 300 303 303 302 304 307 304 300 298 298 297 298 298 298 298 298 299 299 300 301 300 299 300 300 297 298 299 297 298 296 297 298 298 299 298 294 294 294 295 294 292 292 292 291 290 290 289 289 289 287 286 285
299 298 299 300 299 299 298 298 298 297 296 296 296 296 296 297 297 298 298 299 300 299 299 298 298 297 297 298 297 296 297 297 298 297 297 297 296 294 295 295 293 292 292 291 290 289 289 289 288 286 285 284 284 283
297 298 298 299 299 299 298 297 296 295 295 296 296 296 296 295 295 297 298 298 298 298 298 296 295 296 297 296 295 297 298 298 296 296 297 296 295 295 293 292 292 291 290 289 289 288 286 284 283 283 282 281 280 279
292 295 297 298 298 298 296 295 296 296 295 295 296 296 295 295 296 296 296 297 297 297 295 293 293 294 294 296 297 298 297 297 297 296 294 293 293 292 292 291 290 289 289 288 286 284 283 282 281 280 279 278 278 278
292 293 296 297 297 296 295 295 295 295 295 294 294 294 294 295 295 295 295 296 296 293 293 293 293 293 294 295 296 296 297 297 297 296 295 291 290 290 290 289 288 287 286 284 283 282 281 279 278 278 278 277 277 276
292 293 294 296 296 295 294 294 294 294 294 293 294 294 294 293 293 293 293 293 291 290 291 292 292 292 293 293 293 293 293 293 293 293 292 291 289 289 288 287 285 284 283 282 280 279 278 277 277 277 277 276 275 275
292 292 294 295 295 294 293 294 293 293 294 293 293 291 293 292 292 292 292 291 290 290 291 292 293 292 293 291 291 291 290 290 290 290 289 289 288 287 285 283 282 281 280 279 278 277 277 277 277 276 275 275 275 275
292 293 293 292 292 289 293 292 293 293 294 294 292 290 290 291 292 290 291 290 289 289 290 291 291 291 290 289 289 289 288 288 288 287 285 284 284 283 281 281 280 279 278 278 277 277 276 276 275 275 274 274 274 274
293 290 291 286 289 289 281 281 289 289 285 291 292 290 290 290 287 288 290 287 286 287 287 287 288 288 289 288 286 285 285 284 285 285 283 282 281 280 279 278 278 277 277 277 276 276 275 275 274 274 274 273 273 273
285 288 288 286 287 286 281 283 281 284 283 286 288 287 288 284 286 286 286 284 284 284 285 286 287 287 286 285 285 284 284 283 282 281 281 280 279 278 278 277 276 276 275 275 275 275 274 274 274 273 273 272 272 272
282 284 289 290 290 290 288 288 288 286 284 287 287 288 289 287 286 283 282 282 283 283 284 285 285 285 285 284 283 282 281 280 279 279 278 278 277 276 276 275 275 274 274 274 273 273 273 273 273 272 272 272 271 271
289 290 284 290 290 290 287 285 284 283 284 289 289 287 288 285 282 279 280 281 281 282 282 283 283 282 282 281 280 279 278 277 277 276 276 276 275 275 274 273 273 273 273 272 272 272 272 272 272 271 271 271 270 270
290 290 290 289 290 290 289 288 289 289 288 289 287 284 280 278 278 278 279 279 280 280 280 280 280 279 279 279 278 276 276 276 275 275 275 274 274 273 273 273 273 272 272 272 271 271 271 271 271 270 270 270 270 270
289 289 289 289 285 284 288 288 288 287 287 286 283 279 277 276 277 278 278 278 278 278 278 278 278 278 277 275 275 275 275 274 274 274 273 273 272 272 272 271 271 271 271 271 271 271 270 270 270 270 269 269 269 269
288 289 289 288 287 287 288 288 287 287 286 284 282 280 276 275 275 275 276 276 276 276 276 276 275 274 275 275 274 274 274 273 273 272 272 271 271 270 270 270 270 270 270 270 270 270 270 270 269 269 269 269 268 268
287 287 286 283 286 286 287 287 287 286 284 282 279 278 277 276 274 274 273 274 274 274 273 274 274 274 274 273 273 273 272 272 271 271 270 270 270 269 269 269 269 269 269 269 269 269 269 269 268 268 268 268 268 267
286 286 285 286 285 285 284 284 284 282 282 279 278 277 276 275 273 273 272 273 273 273 273 273 273 273 273 272 272 272 271 271 270 270 270 270 269 269 269 269 269 269 268 268 268 268 268 268 268 267 267 267 267 266
Wind_Speed
47 49 46 39 41 39 36 34 31 31 29 29 33 38 42 46 40 26 17 16 10 6 11 8 10 13 10 10 5 11 6 2 3 3 3 3 3 4 2 2 4 5 6 3 3 1 6 7 4 5 3 3 7 16
48 44 42 41 40 38 35 32 28 26 25 28 32 37 40 43 42 24 15 11 9 6 10 14 12 12 10 12 15 21 6 6 8 4 1 3 2 1 2 3 0 3 5 4 8 5 4 13 7 10 3 4 4 10
41 41 39 37 36 34 31 27 24 23 24 27 31 34 37 39 37 23 16 15 8 18 13 11 12 10 11 12 15 9 7 9 8 7 8 2 3 3 4 5 3 4 5 2 1 2 9 19 20 24 20 12 10 10
40 36 35 34 32 30 29 26 24 24 25 26 28 31 34 36 34 23 14 21 12 8 7 5 7 8 8 11 9 9 12 14 16 9 5 3 3 6 3 2 2 2 7 4 4 10 12 15 14 15 16 15 14 10
36 35 34 31 30 29 28 27 24 23 23 26 29 31 35 33 29 35 7 12 12 3 7 8 14 12 10 8 9 11 15 17 10 5 3 2 5 4 2 1 3 9 6 4 5 3 4 6 7 7 7 7 5 8
34 31 30 31 30 28 27 27 23 23 23 27 29 29 28 27 29 31 12 9 10 13 8 3 5 7 12 13 15 15 12 9 5 5 4 4 4 3 3 3 3 3 4 6 4 9 8 9 8 6 1 6 10 11
34 32 30 30 29 24 24 26 26 24 26 28 30 30 30 29 28 19 11 15 13 11 5 4 2 4 6 7 6 7 7 5 4 5 4 4 3 4 3 3 3 9 7 5 5 5 3 4 2 3 5 11 17 18
32 28 27 28 26 24 22 23 25 25 25 22 22 22 21 19 21 21 20 17 12 7 6 4 1 3 3 2 3 3 4 4 6 4 4 4 5 2 2 3 8 7 5 6 5 4 2 6 9 13 16 22 23 17
27 26 26 26 26 20 17 19 23 24 25 26 19 18 20 17 8 15 16 13 10 6 6 4 4 3 2 4 4 3 3 3 2 2 2 3 1 3 1 8 10 6 4 2 6 10 13 15 20 22 20 14 14 12
28 29 28 26 25 22 18 15 19 21 22 23 16 5 6 10 22 14 5 3 4 6 5 4 3 2 3 2 4 2 4 1 2 0 2 2 2 5 7 5 6 4 5 9 14 15 18 25 18 15 16 11 7 4
22 25 27 25 23 21 18 15 16 16 16 5 4 6 19 13 5 5 5 7 7 5 6 4 4 4 3 2 2 3 2 1 2 1 2 1 1 3 5 8 10 9 9 5 11 18 18 18 17 13 8 4 1 3
22 22 22 24 21 18 14 14 15 13 7 11 16 14 6 5 5 7 3 2 3 2 2 3 4 5 4 3 4 2 3 1 2 4 2 2 2 8 11 13 16 16 20 24 22 21 17 13 8 4 2 3 4 6
29 26 22 20 20 22 19 13 13 15 12 5 6 5 7 8 7 4 4 1 1 4 4 4 3 3 3 4 5 2 3 2 8 2 2 2 11 13 18 22 23 22 19 18 16 13 9 5 3 3 4 5 7 9
21 23 24 20 17 17 18 17 17 18 12 5 3 4 2 1 1 1 1 3 3 5 10 10 6 3 3 3 1 3 1 2 3 3 2 4 15 16 21 19 18 17 13 11 8 5 4 4 4 4 6 7 8 10
20 20 21 20 17 18 18 19 20 12 5 5 4 3 2 4 5 7 9 7 7 9 9 8 6 3 2 3 2 3 2 2 2 2 1 10 18 19 15 15 13 10 7 6 6 4 4 4 5 5 6 9 12 15
16 17 20 17 15 16 15 19 17 6 6 5 6 4 5 6 3 5 10 10 9 11 8 5 3 2 2 2 2 2 4 3 2 1 7 18 18 16 14 15 10 7 7 6 4 3 3 4 7 9 11 14 19 23
19 21 14 14 15 15 11 12 7 8 5 4 4 10 9 10 6 5 7 5 10 4 2 2 3 1 2 2 2 1 2 2 11 11 11 15 16 16 15 11 6 4 4 3 2 2 4 7 11 16 20 24 26 28
20 17 12 11 12 13 16 10 7 6 6 8 6 7 12 10 10 7 8 8 3 4 3 2 5 2 2 3 2 3 4 16 13 11 12 12 14 15 12 9 7 5 3 1 3 7 10 14 18 20 23 26 29 31
13 12 10 7 4 4 5 6 6 5 7 6 8 11 12 12 12 10 8 6 7 9 9 3 3 2 1 1 2 13 17 16 14 10 6 7 10 10 10 9 7 4 1 4 8 11 14 16 18 21 24 27 30 31
12 9 8 7 3 5 6 6 6 6 4 3 6 7 7 7 8 9 8 8 7 3 4 3 1 2 3 6 9 12 15 11 8 11 11 11 10 11 10 7 3 2 4 6 9 12 15 18 21 24 26 27 30 31
12 11 9 9 15 11 7 5 6 5 5 5 7 5 5 8 5 5 6 5 3 4 3 3 7 11 10 10 9 9 10 7 9 8 13 15 12 8 5 2 1 3 6 10 13 16 18 21 23 25 27 29 30 31
14 10 10 11 8 7 8 9 6 4 4 4 4 5 4 3 3 3 4 7 4 3 3 7 10 10 10 10 10 8 8 6 7 8 11 11 9 5 2 1 4 7 10 13 15 18 20 21 24 25 27 29 29 28
11 10 9 9 6 6 4 5 4 3 2 2 3 3 2 2 2 3 2 2 3 3 3 8 9 7 8 10 9 9 9 7 8 9 8 6 3 2 1 4 6 8 12 14 17 19 20 22 23 24 23 23 24 26
10 7 7 6 9 3 3 5 4 3 3 2 2 2 2 2 3 2 1 2 4 3 2 7 10 12 11 9 8 8 8 6 6 6 4 2 0 1 4 6 9 12 14 16 17 18 19 20 19 19 20 21 20 22
5 9 6 5 7 5 5 4 4 4 1 1 1 1 1 2 2 1 1 3 4 4 5 7 7 7 8 8 7 6 5 4 3 1 1 1 2 4 6 9 12 14 16 16 16 17 18 17 17 18 19 19 20 20
6 7 4 2 3 3 2 2 1 2 1 2 1 2 2 3 2 1 2 3 3 6 5 5 5 6 6 5 5 4 3 2 1 0 0 1 3 6 9 11 13 14 16 17 18 18 18 18 18 19 18 19 19 21
4 2 3 3 2 2 2 1 1 1 2 3 2 3 1 2 2 2 2 3 4 5 5 3 2 2 4 5 4 3 2 2 1 1 1 3 7 10 12 13 14 15 16 16 17 18 19 19 19 19 19 19 20 21
5 3 2 3 2 1 1 0 1 2 2 1 4 2 1 2 2 2 2 6 5 4 4 4 4 5 5 4 3 3 3 2 1 2 5 7 9 11 12 14 15 16 16 16 17 17 18 18 18 18 19 19 19 20
3 3 3 3 2 2 3 3 4 3 3 1 2 2 3 4 4 7 7 5 4 2 3 3 3 4 3 3 2 2 2 3 4 6 8 9 10 11 13 14 15 16 16 15 16 17 17 17 17 17 17 17 17 17
4 4 2 2 2 2 4 5 3 3 4 5 6 8 9 9 8 8 6 3 1 1 2 3 2 2 2 2 2 2 2 4 6 9 10 12 14 15 15 16 17 17 17 17 16 15 15 15 14 14 14 14 14 14
4 2 1 2 2 3 4 4 4 5 5 8 8 8 9 8 8 7 5 4 3 2 2 3 3 4 3 4 4 6 7 10 12 14 14 15 15 15 16 17 17 17 17 17 16 16 16 15 15 15 15 15 15 15
4 4 2 2 1 3 2 1 2 3 3 3 4 5 6 4 3 3 2 3 4 4 4 4 3 3 4 5 7 10 11 13 14 15 15 15 15 16 16 17 18 18 17 16 15 15 15 15 15 15 15 15 15 14
2 2 3 2 2 2 4 2 3 3 4 4 4 4 3 3 3 3 3 2 3 4 3 3 4 5 7 9 12 14 16 17 16 16 16 16 17 16 17 18 18 17 16 15 15 15 15 14 14 14 14 14 13 13
Wind_Direction
155 150 148 150 155 161 164 165 169 175 178 178 178 179 180 181 179 178 178 187 177 133 147 169 154 158 156 156 137 152 103 232 62 78 131 184 153 200 141 154 182 173 155 187 108 187 270 181 132 179 224 219 198 193
142 143 146 153 157 159 162 163 163 165 168 170 174 178 180 182 185 183 176 167 189 131 131 125 133 156 176 169 145 163 166 157 160 94 144 119 135 141 138 219 40 225 201 179 197 218 238 202 226 224 244 249 261 238
135 140 144 147 148 149 149 146 148 153 158 164 170 174 176 178 181 182 167 173 153 118 104 111 100 118 151 158 162 136 174 165 164 136 143 132 134 144 162 228 197 230 174 215 134 225 239 249 248 258 259 272 282 282
134 135 135 136 138 140 142 140 139 144 153 155 163 165 166 168 173 166 155 180 194 137 108 70 106 105 124 151 162 166 183 161 151 134 108 132 135 194 184 151 203 195 156 178 263 281 277 278 268 273 274 269 269 259
131 130 131 135 136 135 138 139 136 141 142 145 152 157 161 164 170 175 200 206 200 177 133 123 93 72 95 130 134 134 154 154 143 108 91 142 129 127 67 54 258 187 183 174 228 296 249 295 321 318 278 271 226 192
129 135 134 134 131 129 129 132 130 131 131 132 139 145 154 161 163 167 155 157 157 121 109 112 114 99 102 113 130 134 137 133 123 117 116 112 128 125 127 198 284 244 287 273 288 311 298 296 312 318 220 157 155 147
135 132 131 129 121 136 129 130 129 131 131 133 136 138 142 150 156 167 159 153 142 124 105 88 42 122 127 122 111 103 115 109 108 104 77 121 114 131 129 199 21 345 337 324 307 312 331 0 39 96 144 139 139 126
142 142 138 125 138 126 121 125 134 135 135 134 132 136 141 150 136 114 122 134 133 104 88 109 328 101 134 91 77 78 98 101 55 95 98 101 116 118 222 329 356 10 23 48 34 34 90 114 117 116 130 135 122 112
148 138 129 129 152 144 124 119 122 127 130 141 149 139 123 116 96 108 111 107 92 103 106 86 132 186 98 87 83 71 72 66 75 97 90 128 118 214 346 315 315 319 7 88 104 109 121 119 117 118 113 100 96 91
149 154 141 138 137 143 150 136 130 133 135 138 137 125 88 106 115 108 71 79 63 42 59 82 100 101 88 85 64 85 34 79 100 333 99 101 158 101 22 357 331 317 198 167 126 105 118 115 105 101 91 93 105 125
143 154 160 159 150 130 135 143 143 137 143 118 68 70 119 118 89 64 66 46 0 40 35 72 90 119 98 119 123 44 120 71 135 243 197 130 196 93 71 72 73 87 127 124 122 121 117 108 101 101 106 110 59 313
141 147 156 169 174 166 162 149 144 134 85 85 112 103 86 66 68 78 48 24 51 146 92 107 94 95 90 94 105 106 105 116 156 159 167 206 105 135 119 106 103 105 107 105 103 105 108 109 107 97 54 12 359 349
149 149 147 153 162 177 193 193 165 142 137 78 49 62 36 9 48 99 174 191 152 169 138 131 80 93 102 81 85 109 136 164 133 170 213 87 139 139 132 123 116 112 111 113 116 115 116 106 70 46 27 5 352 343
112 141 150 149 151 155 160 154 154 151 136 114 107 73 83 100 101 123 106 98 124 135 134 123 94 92 91 87 110 120 86 128 191 216 197 146 154 133 129 133 134 132 130 127 123 112 97 78 48 20 9 1 348 338
81 86 114 129 152 165 169 166 166 157 76 76 55 85 83 120 88 98 106 109 113 137 128 105 79 90 46 95 48 109 142 218 229 209 124 134 163 149 144 150 141 131 120 104 92 78 59 42 32 23 5 348 339 330
92 85 88 90 87 99 132 173 173 111 64 61 60 88 109 83 81 97 113 110 123 135 119 89 99 99 87 110 118 175 160 213 173 114 148 149 147 146 151 151 142 120 105 94 87 63 28 8 5 359 342 330 329 328
88 74 87 98 99 88 94 130 71 61 63 64 54 100 96 100 98 99 102 109 141 119 90 106 91 122 113 81 126 162 185 176 139 110 132 159 150 151 153 147 142 143 143 113 74 31 8 353 339 330 333 335 333 333
82 70 82 107 109 97 77 63 76 69 68 59 84 79 85 98 114 103 111 126 105 100 101 120 123 88 126 142 224 188 135 141 129 126 122 126 138 148 164 160 155 160 145 91 13 353 340 337 338 341 338 335 332 330
75 73 74 108 111 81 66 54 54 85 63 71 83 88 87 86 88 102 112 112 112 110 112 80 79 117 172 188 146 154 153 157 143 135 132 162 175 168 151 155 155 145 52 357 347 345 345 345 345 340 338 337 336 337
56 71 77 79 83 79 77 56 61 77 73 64 88 81 75 83 80 69 87 100 93 70 60 50 95 99 104 110 141 166 159 163 180 145 130 135 144 154 156 157 145 33 350 345 346 345 344 342 341 342 342 339 335 334
62 72 81 81 63 66 79 70 65 66 81 84 93 75 71 92 72 55 49 40 59 42 64 60 114 112 115 113 119 146 178 193 195 201 183 160 160 164 154 133 20 347 346 349 349 348 346 346 344 342 338 335 332 329
50 58 66 57 63 65 66 47 77 84 70 93 71 69 72 55 59 45 11 36 54 39 82 133 131 128 125 119 115 119 120 136 153 161 163 163 158 168 169 8 351 349 349 349 349 350 348 345 340 337 333 335 338 342
45 49 52 37 70 56 55 45 69 50 82 100 98 80 85 92 95 108 69 72 95 65 142 161 167 156 137 125 125 126 124 123 130 135 145 154 151 132 347 342 346 351 351 350 348 345 342 338 336 337 340 345 348 353
42 50 37 43 39 67 63 49 47 54 79 52 68 69 62 91 124 81 114 84 72 77 137 154 158 149 140 134 130 127 126 128 133 139 135 127 64 5 2 355 350 345 342 341 339 337 334 335 339 343 344 349 354 357
54 21 30 25 31 44 36 13 14 43 47 14 116 105 159 138 87 113 39 70 72 115 133 155 162 165 151 136 128 127 134 139 134 81 112 101 7 358 348 341 336 333 333 332 330 331 334 337 341 343 344 343 343 347
72 20 49 60 24 55 187 76 270 221 110 357 21 118 137 99 85 87 54 42 81 81 114 156 174 164 148 144 137 128 124 113 112 295 110 19 338 332 332 332 332 329 329 328 329 331 334 336 337 339 339 338 336 336
66 10 63 90 103 116 84 135 146 158 177 196 188 167 130 125 129 69 74 68 123 108 103 111 134 158 139 135 121 104 95 85 63 54 360 330 329 329 327 327 327 326 326 327 327 328 330 332 333 334 334 336 336 336
56 48 85 0 8 36 118 64 136 217 247 166 130 68 87 80 96 67 84 109 114 103 91 93 102 111 118 115 96 77 72 67 48 352 333 331 326 324 322 323 323 324 327 328 328 327 326 327 327 330 333 335 335 334
53 26 355 8 1 47 44 16 360 24 5 188 96 86 92 85 111 131 132 132 116 74 56 65 100 101 94 85 79 59 43 22 359 346 330 322 320 319 319 320 323 326 327 326 326 325 325 325 327 329 330 331 332 333
25 357 349 39 70 27 32 18 19 18 62 109 108 108 99 100 100 124 134 152 261 348 81 86 76 101 102 92 69 45 17 354 336 334 332 329 326 323 323 326 328 328 327 326 326 325 323 323 323 324 325 326 327 329
348 334 109 65 87 44 23 71 109 60 70 67 82 114 125 127 120 109 115 103 78 60 63 91 95 90 75 55 30 9 353 344 338 334 330 327 325 325 325 325 326 327 327 325 324 325 325 325 326 328 330 331 331 333
22 31 29 76 103 22 359 64 63 79 87 82 81 96 119 125 109 136 110 59 68 75 77 83 73 58 33 16 3 353 348 340 332 329 328 326 326 325 326 327 327 327 326 324 323 323 324 324 325 328 330 331 333 335
359 25 32 62 50 10 11 11 60 74 63 70 67 69 78 86 100 119 139 96 69 44 49 61 43 18 1 350 346 342 340 337 333 329 327 325 325 324 325 325 324 326 325 323 322 322 323 324 326 328 330 332 335 338